map of PPG home
PPG - Airport
Location
City:  Pago Pago, American Samoa
Name:Tafuna/Pago Pago International Airport
ICAO:NSTU
IATA:PPG
FAA LID:PPG

Details
Type:Airport (Part 139 Class I)
Use:Public/Civil, International (customs by prior arrangement)
Latitude:1419'54"S (-14.331659)
Longitude:17042'41"W (-170.711502)
Datum:WGS 1984
Elevation:32 ft (10 m)
Variation:11.79E (WMM2015 magnetic declination)
0.04 annual change
Runways:2
Longest:10000 × 150 ft (3048 × 45.5 m), paved

Time
Time Zone:UTC-11
Local Time:

Weather
METAR:NSTU 210850Z 09009KT 10SM SCT016 BKN036 27/24 A2988 RMK SHRAE03 SLP120 60000 8/400 T02720243 53007
TAF:NSTU 210902Z 2109/2206 09011KT P6SM VCSH SCT015 BKN035

Related Locations
Nearby:
Farthest:ZND: 12390 mi / 19940 km
Zinder, NE

Find:

   beyond  
but within

Other Information
Maps:
NOTAMs:
Links:
Sources:

  
  • flag of American Samoa
  

Airport Diagram

Airport diagram for PPG

Airport diagram PDF

Sectional Chart

Flight Planning
at skyvector.com

Satellite Image

Google Maps Satellite view

 

Copyright © 2004-2018 Karl L. Swartz. All rights reserved.
The Great Circle Mapper name and logo are trademarks of the Great Circle Mapper.
All other trademarks mentioned herein belong to their respective owners.
Please see credits for attibutions and further copyright information.

  Follow gcmap on Facebook Follow gcmap on Twitter Follow gcmap on Google+ GCmap on LinkedIn

hCard Microformat

Geo Microformat